Location: Bear Trap Landing
(45.2437°N, 67.7928°W)
Time: 18:52:41
(UTC+00:00)

ISS - Pass Details

Date: 10 March 2021
Orbit: 418 x 421 km, 51.6° (Epoch: 21 April)

Event Time Altitude Azimuth Distance (km) Brightness Sun altitude
Exits shadow 09:22:59 40° 289° (WNW) 627 -3.3 -16.5°
Maximum altitude 09:24:02 76° 213° (SSW) 435 -3.9 -16.4°
Drops below altitude 10° 09:27:23 10° 126° (SE) 1,493 -0.4 -15.8°
Sets 09:29:28 0° 125° (SE) 2,353 0.8 -15.4°
